| time (UTC) | temp F | wind direction | speed MPH | gust MPH | rain 1hr in | rain 24hr in | rain mn in | humidity % | barometer mb |
| 20260504141148 | 55 | 224 | 2.0 | 2.0 | 0.00 | 0.01 | 0.01 | 55 | 1006.8 |
| 20260504140645 | 55 | 286 | 16.0 | 19.0 | 0.00 | 0.01 | 0.01 | 54 | 1006.8 |
| 20260504140140 | 55 | 274 | 10.0 | 13.0 | 0.00 | 0.01 | 0.01 | 55 | 1006.8 |
| 20260504130609 | 53 | 148 | 4.0 | 4.0 | 0.00 | 0.01 | 0.01 | 59 | 1006.8 |
| 20260504130105 | 53 | 193 | 4.0 | 4.0 | 0.00 | 0.01 | 0.01 | 60 | 1006.8 |
| 20260504110456 | 46 | 188 | 2.0 | 3.0 | 0.00 | 0.01 | 0.01 | 77 | 1007.4 |
| 20260504100419 | 46 | 237 | 4.0 | 4.0 | 0.00 | 0.01 | 0.01 | 77 | 1007.4 |
| 20260504081812 | 44 | 188 | 2.0 | 2.0 | 0.00 | 0.01 | 0.01 | 80 | 1007.4 |
| 20260504081309 | 45 | 243 | 6.0 | 7.0 | 0.00 | 0.01 | 0.01 | 79 | 1007.4 |
| 20260504080804 | 45 | 212 | 3.0 | 4.0 | 0.00 | 0.01 | 0.01 | 78 | 1007.8 |
| 20260504080301 | 45 | 215 | 8.0 | 9.0 | 0.00 | 0.01 | 0.01 | 78 | 1007.8 |
| 20260504070229 | 43 | 244 | 4.0 | 4.0 | 0.00 | 0.01 | 0.01 | 76 | 1007.8 |
| 20260504060149 | 42 | 208 | 4.0 | 4.0 | 0.00 | 0.00 | 0.00 | 71 | 1007.8 |
| 20260504050618 | 43 | 247 | 12.0 | 14.0 | 0.00 | 0.00 | 0.00 | 61 | 1008.1 |
| 20260504050115 | 44 | 210 | 14.0 | 16.0 | 0.00 | 0.00 | 0.00 | 59 | 1008.1 |
| 20260504045612 | 44 | 258 | 6.0 | 7.0 | 0.00 | 0.00 | 0.00 | 52 | 1008.1 |
| 20260504045106 | 44 | 226 | 4.0 | 4.0 | 0.00 | 0.00 | 0.00 | 52 | 1008.1 |
| 20260504044605 | 44 | 215 | 5.0 | 6.0 | 0.00 | 0.00 | 0.00 | 52 | 1008.1 |
| 20260504044101 | 44 | 223 | 8.0 | 10.0 | 0.00 | 0.00 | 0.00 | 52 | 1008.6 |
| 20260504043558 | 44 | 224 | 7.0 | 8.0 | 0.00 | 0.00 | 0.00 | 51 | 1008.1 |
| 20260504043055 | 44 | 213 | 5.0 | 7.0 | 0.00 | 0.00 | 0.00 | 51 | 1008.6 |
| 20260504042552 | 43 | 234 | 6.0 | 7.0 | 0.00 | 0.00 | 0.00 | 52 | 1008.6 |
| 20260504042049 | 44 | 230 | 6.0 | 7.0 | 0.00 | 0.00 | 0.00 | 51 | 1008.1 |
| 20260504041545 | 43 | 191 | 2.0 | 3.0 | 0.00 | 0.00 | 0.00 | 52 | 1008.6 |
| 20260504041041 | 43 | 190 | 5.0 | 6.0 | 0.00 | 0.00 | 0.00 | 51 | 1008.1 |
| 20260504040539 | 43 | 180 | 4.0 | 4.0 | 0.00 | 0.00 | 0.00 | 52 | 1008.1 |
| 20260504040035 | 43 | 190 | 5.0 | 6.0 | 0.00 | 0.00 | 0.00 | 51 | 1008.1 |
| 20260504035532 | 42 | 190 | 9.0 | 9.0 | 0.00 | 0.00 | 0.00 | 53 | 1008.1 |
| 20260504035029 | 41 | 203 | 4.0 | 4.0 | 0.00 | 0.00 | 0.00 | 53 | 1008.1 |
| 20260504034527 | 39 | 193 | 3.0 | 3.0 | 0.00 | 0.00 | 0.00 | 57 | 1008.1 |
| 20260504034023 | 39 | 216 | 3.0 | 3.0 | 0.00 | 0.00 | 0.00 | 59 | 1008.1 |
| 20260504033521 | 39 | 200 | 3.0 | 3.0 | 0.00 | 0.00 | 0.00 | 58 | 1008.1 |
| 20260504033018 | 41 | 186 | 4.0 | 4.0 | 0.00 | 0.00 | 0.00 | 55 | 1008.1 |
| 20260504032515 | 42 | 189 | 4.0 | 4.0 | 0.00 | 0.00 | 0.00 | 51 | 1007.8 |
| 20260504032012 | 42 | 197 | 5.0 | 6.0 | 0.00 | 0.00 | 0.00 | 51 | 1008.1 |
| 20260504031509 | 43 | 226 | 6.0 | 7.0 | 0.00 | 0.00 | 0.00 | 51 | 1008.1 |
| 20260504031005 | 42 | 192 | 5.0 | 6.0 | 0.00 | 0.00 | 0.00 | 53 | 1008.1 |
| 20260504030503 | 43 | 200 | 4.0 | 4.0 | 0.00 | 0.00 | 0.00 | 50 | 1008.1 |
| 20260504025958 | 41 | 202 | 6.0 | 7.0 | 0.00 | 0.00 | 0.00 | 52 | 1008.1 |
| 20260504025455 | 42 | 191 | 5.0 | 6.0 | 0.00 | 0.00 | 0.00 | 54 | 1008.1 |
| 20260504024952 | 41 | 203 | 4.0 | 4.0 | 0.00 | 0.00 | 0.00 | 55 | 1008.1 |
| 20260504024449 | 40 | 193 | 4.0 | 4.0 | 0.00 | 0.00 | 0.00 | 58 | 1008.1 |
| 20260504023946 | 40 | 216 | 6.0 | 6.0 | 0.00 | 0.00 | 0.00 | 58 | 1008.1 |
| 20260504023443 | 40 | 212 | 5.0 | 6.0 | 0.00 | 0.00 | 0.00 | 58 | 1008.1 |
| 20260504022938 | 40 | 215 | 5.0 | 6.0 | 0.00 | 0.00 | 0.00 | 57 | 1007.8 |
| 20260504022435 | 42 | 183 | 3.0 | 3.0 | 0.00 | 0.00 | 0.00 | 54 | 1008.6 |
| 20260504021932 | 41 | 181 | 4.0 | 4.0 | 0.00 | 0.00 | 0.00 | 55 | 1008.1 |
| 20260504021429 | 41 | 193 | 4.0 | 4.0 | 0.00 | 0.00 | 0.00 | 56 | 1008.1 |
| 20260504020926 | 42 | 198 | 4.0 | 4.0 | 0.00 | 0.00 | 0.00 | 55 | 1008.1 |
| 20260504020423 | 42 | 185 | 3.0 | 3.0 | 0.00 | 0.00 | 0.00 | 54 | 1008.6 |
| 20260504015919 | 43 | 193 | 4.0 | 4.0 | 0.00 | 0.00 | 0.00 | 55 | 1008.6 |
| 20260504015415 | 43 | 221 | 4.0 | 4.0 | 0.00 | 0.00 | 0.00 | 54 | 1008.6 |
| 20260504014912 | 42 | 199 | 3.0 | 4.0 | 0.00 | 0.00 | 0.00 | 54 | 1008.1 |
| 20260504014408 | 42 | 197 | 4.0 | 4.0 | 0.00 | 0.00 | 0.00 | 54 | 1008.6 |
| 20260504013905 | 43 | 201 | 4.0 | 4.0 | 0.00 | 0.00 | 0.00 | 54 | 1008.1 |
| 20260504013403 | 43 | 201 | 4.0 | 4.0 | 0.00 | 0.00 | 0.00 | 54 | 1008.1 |
| 20260504012859 | 42 | 213 | 4.0 | 4.0 | 0.00 | 0.00 | 0.00 | 55 | 1008.1 |
| 20260504012357 | 42 | 184 | 3.0 | 3.0 | 0.00 | 0.00 | 0.00 | 55 | 1008.1 |
| 20260504011854 | 41 | 191 | 2.0 | 3.0 | 0.00 | 0.00 | 0.00 | 56 | 1007.8 |
| 20260504011351 | 41 | 181 | 1.0 | 2.0 | 0.00 | 0.00 | 0.00 | 59 | 1007.8 |
| 20260504010847 | 41 | 164 | 2.0 | 2.0 | 0.00 | 0.00 | 0.00 | 58 | 1007.8 |
| 20260504010342 | 43 | 186 | 2.0 | 2.0 | 0.00 | 0.00 | 0.00 | 56 | 1007.8 |
| 20260504005839 | 43 | 178 | 1.0 | 2.0 | 0.00 | 0.00 | 0.00 | 53 | 1007.8 |
| 20260504005336 | 44 | 241 | 2.0 | 2.0 | 0.00 | 0.00 | 0.00 | 53 | 1007.8 |
| 20260504004833 | 44 | 282 | 5.0 | 6.0 | 0.00 | 0.00 | 0.00 | 53 | 1007.4 |
| 20260504004331 | 43 | 223 | 3.0 | 3.0 | 0.00 | 0.00 | 0.00 | 53 | 1007.4 |
| 20260504003827 | 42 | 255 | 2.0 | 2.0 | 0.00 | 0.00 | 0.00 | 54 | 1007.4 |
| 20260504003324 | 42 | 177 | 2.0 | 2.0 | 0.00 | 0.00 | 0.00 | 57 | 1007.8 |
| 20260504002821 | 43 | 193 | 2.0 | 3.0 | 0.00 | 0.00 | 0.00 | 54 | 1007.4 |
| 20260504002318 | 42 | 194 | 3.0 | 3.0 | 0.00 | 0.00 | 0.00 | 55 | 1007.4 |
| 20260504001815 | 42 | 147 | 0.0 | 0.0 | 0.00 | 0.00 | 0.00 | 57 | 1007.4 |
| 20260504001313 | 42 | 158 | 0.0 | 0.0 | 0.00 | 0.00 | 0.00 | 57 | 1007.4 |
| 20260504000809 | 42 | 162 | 2.0 | 2.0 | 0.00 | 0.00 | 0.00 | 56 | 1007.4 |
| 20260504000306 | 42 | 153 | 1.0 | 1.0 | 0.00 | 0.00 | 0.00 | 56 | 1007.4 |
| 20260503235804 | 44 | 146 | 1.0 | 1.0 | 0.00 | 0.00 | 0.00 | 54 | 1007.4 |
| 20260503235301 | 44 | 143 | 0.0 | 0.0 | 0.00 | 0.00 | 0.00 | 52 | 1007.1 |
| 20260503234759 | 44 | 153 | 0.0 | 0.0 | 0.00 | 0.00 | 0.00 | 53 | 1007.1 |
| 20260503234257 | 45 | 177 | 1.0 | 1.0 | 0.00 | 0.00 | 0.00 | 52 | 1007.4 |
| 20260503233754 | 44 | 288 | 4.0 | 4.0 | 0.00 | 0.00 | 0.00 | 52 | 1007.1 |
| 20260503233249 | 45 | 261 | 4.0 | 4.0 | 0.00 | 0.00 | 0.00 | 52 | 1007.1 |
| 20260503232747 | 45 | 165 | 2.0 | 3.0 | 0.00 | 0.00 | 0.00 | 51 | 1007.1 |
| 20260503232244 | 45 | 193 | 1.0 | 1.0 | 0.00 | 0.00 | 0.00 | 52 | 1007.1 |
| 20260503231742 | 45 | 246 | 1.0 | 1.0 | 0.00 | 0.00 | 0.00 | 51 | 1007.1 |
| 20260503231239 | 46 | 230 | 4.0 | 4.0 | 0.00 | 0.00 | 0.00 | 50 | 1007.1 |
| 20260503230734 | 46 | 273 | 6.0 | 8.0 | 0.00 | 0.00 | 0.00 | 51 | 1007.1 |
| 20260503230232 | 46 | 327 | 4.0 | 7.0 | 0.00 | 0.00 | 0.00 | 50 | 1007.1 |
| 20260503225729 | 46 | 207 | 2.0 | 2.0 | 0.00 | 0.00 | 0.00 | 52 | 1007.1 |
| 20260503225229 | 46 | 254 | 5.0 | 8.0 | 0.00 | 0.00 | 0.00 | 50 | 1007.1 |
| 20260503224726 | 46 | 72 | 1.0 | 1.0 | 0.00 | 0.00 | 0.00 | 52 | 1007.1 |
| 20260503224224 | 46 | 251 | 2.0 | 3.0 | 0.00 | 0.00 | 0.00 | 51 | 1006.8 |
| 20260503223722 | 47 | 169 | 1.0 | 2.0 | 0.00 | 0.00 | 0.00 | 51 | 1007.1 |
| 20260503223219 | 46 | 150 | 2.0 | 3.0 | 0.00 | 0.00 | 0.00 | 51 | 1007.1 |
| 20260503222715 | 47 | 280 | 8.0 | 10.0 | 0.00 | 0.00 | 0.00 | 49 | 1007.1 |
| 20260503222213 | 47 | 245 | 3.0 | 3.0 | 0.00 | 0.00 | 0.00 | 50 | 1007.4 |
| 20260503221712 | 47 | 91 | 2.0 | 3.0 | 0.00 | 0.00 | 0.00 | 52 | 1007.1 |
| 20260503221209 | 46 | 36 | 4.0 | 6.0 | 0.00 | 0.00 | 0.00 | 51 | 1007.1 |
| 20260503220705 | 46 | 284 | 4.0 | 6.0 | 0.00 | 0.00 | 0.00 | 50 | 1007.1 |
| 20260503220202 | 46 | 277 | 5.0 | 6.0 | 0.00 | 0.00 | 0.00 | 50 | 1006.8 |
| 20260503215659 | 46 | 279 | 5.0 | 6.0 | 0.00 | 0.00 | 0.00 | 51 | 1007.1 |
| 20260503215155 | 46 | 306 | 2.0 | 4.0 | 0.00 | 0.00 | 0.00 | 52 | 1006.8 |
| 20260503214654 | 46 | 358 | 3.0 | 4.0 | 0.00 | 0.00 | 0.00 | 52 | 1006.8 |
| 20260503214149 | 45 | 259 | 6.0 | 9.0 | 0.00 | 0.00 | 0.00 | 52 | 1007.1 |
| 20260503213644 | 47 | 303 | 4.0 | 4.0 | 0.00 | 0.00 | 0.00 | 50 | 1006.8 |
| 20260503213140 | 46 | 297 | 9.0 | 10.0 | 0.00 | 0.00 | 0.00 | 50 | 1006.8 |
| 20260503212637 | 45 | 271 | 11.0 | 16.0 | 0.00 | 0.00 | 0.00 | 51 | 1006.8 |
| 20260503212134 | 46 | 67 | 2.0 | 3.0 | 0.00 | 0.00 | 0.00 | 52 | 1007.1 |
| 20260503211632 | 46 | 283 | 5.0 | 7.0 | 0.00 | 0.00 | 0.00 | 52 | 1006.8 |
| 20260503211127 | 46 | 153 | 2.0 | 2.0 | 0.00 | 0.00 | 0.00 | 53 | 1006.8 |
| 20260503210624 | 46 | 254 | 3.0 | 3.0 | 0.00 | 0.00 | 0.00 | 54 | 1006.8 |
| 20260503210121 | 45 | 226 | 4.0 | 6.0 | 0.00 | 0.00 | 0.00 | 54 | 1007.1 |
| 20260503205616 | 45 | 229 | 11.0 | 14.0 | 0.00 | 0.00 | 0.00 | 54 | 1006.8 |
| 20260503205113 | 45 | 114 | 8.0 | 9.0 | 0.00 | 0.00 | 0.00 | 55 | 1006.8 |
| 20260503204610 | 45 | 282 | 6.0 | 7.0 | 0.00 | 0.00 | 0.00 | 55 | 1006.8 |
| 20260503204107 | 44 | 301 | 5.0 | 7.0 | 0.00 | 0.00 | 0.00 | 55 | 1006.8 |
| 20260503203604 | 44 | 171 | 2.0 | 2.0 | 0.00 | 0.00 | 0.00 | 54 | 1006.8 |
| 20260503203101 | 44 | 44 | 2.0 | 2.0 | 0.00 | 0.00 | 0.00 | 55 | 1007.1 |
| 20260503202559 | 44 | 282 | 5.0 | 7.0 | 0.00 | 0.00 | 0.00 | 54 | 1006.8 |
| 20260503202057 | 44 | 207 | 3.0 | 3.0 | 0.00 | 0.00 | 0.00 | 55 | 1006.8 |
| 20260503201555 | 44 | 294 | 5.0 | 6.0 | 0.00 | 0.00 | 0.00 | 54 | 1007.1 |
| 20260503201052 | 44 | 244 | 7.0 | 8.0 | 0.00 | 0.00 | 0.00 | 53 | 1006.8 |
| 20260503200548 | 45 | 12 | 4.0 | 4.0 | 0.00 | 0.00 | 0.00 | 54 | 1006.8 |
| 20260503200044 | 45 | 346 | 3.0 | 4.0 | 0.00 | 0.00 | 0.00 | 53 | 1006.8 |
| 20260503195542 | 45 | 324 | 7.0 | 9.0 | 0.00 | 0.00 | 0.00 | 52 | 1006.8 |
| 20260503195038 | 46 | 332 | 7.0 | 10.0 | 0.00 | 0.00 | 0.00 | 52 | 1006.8 |
| 20260503194536 | 45 | 311 | 6.0 | 8.0 | 0.00 | 0.00 | 0.00 | 52 | 1006.8 |
| 20260503194035 | 45 | 186 | 2.0 | 4.0 | 0.00 | 0.00 | 0.00 | 54 | 1007.1 |
| 20260503193532 | 44 | 334 | 2.0 | 3.0 | 0.00 | 0.00 | 0.00 | 53 | 1007.1 |
| 20260503193027 | 44 | 312 | 8.0 | 9.0 | 0.00 | 0.00 | 0.00 | 52 | 1007.1 |
| 20260503192524 | 44 | 329 | 8.0 | 10.0 | 0.00 | 0.00 | 0.00 | 52 | 1007.4 |
| 20260503192020 | 45 | 307 | 12.0 | 14.0 | 0.00 | 0.00 | 0.00 | 51 | 1007.1 |
| 20260503191517 | 45 | 44 | 3.0 | 3.0 | 0.00 | 0.00 | 0.00 | 53 | 1007.1 |
| 20260503191014 | 45 | 140 | 3.0 | 6.0 | 0.00 | 0.00 | 0.00 | 50 | 1007.1 |
| 20260503190511 | 45 | 316 | 9.0 | 13.0 | 0.00 | 0.00 | 0.00 | 50 | 1007.1 |
| 20260503190008 | 45 | 189 | 4.0 | 6.0 | 0.00 | 0.00 | 0.00 | 49 | 1007.1 |
| 20260503185503 | 45 | 270 | 10.0 | 13.0 | 0.00 | 0.00 | 0.00 | 49 | 1007.1 |
| 20260503184958 | 46 | 282 | 1.0 | 2.0 | 0.00 | 0.00 | 0.00 | 51 | 1007.1 |
| 20260503184454 | 46 | 131 | 4.0 | 6.0 | 0.00 | 0.00 | 0.00 | 50 | 1007.1 |
| 20260503183951 | 47 | 293 | 14.0 | 16.0 | 0.00 | 0.00 | 0.00 | 49 | 1007.1 |
| 20260503183448 | 45 | 163 | 1.0 | 2.0 | 0.00 | 0.00 | 0.00 | 52 | 1007.1 |
| 20260503182944 | 45 | 312 | 7.0 | 10.0 | 0.00 | 0.00 | 0.00 | 50 | 1007.1 |
| 20260503182443 | 45 | 358 | 7.0 | 10.0 | 0.00 | 0.00 | 0.00 | 50 | 1006.8 |
| 20260503181940 | 45 | 286 | 10.0 | 14.0 | 0.00 | 0.00 | 0.00 | 50 | 1006.8 |
| 20260503181437 | 45 | 252 | 15.0 | 17.0 | 0.00 | 0.00 | 0.00 | 49 | 1007.4 |
| 20260503180933 | 46 | 245 | 8.0 | 11.0 | 0.00 | 0.00 | 0.00 | 48 | 1007.1 |
| 20260503180432 | 45 | 327 | 9.0 | 13.0 | 0.00 | 0.00 | 0.00 | 48 | 1007.1 |
| 20260503175928 | 46 | 308 | 5.0 | 8.0 | 0.00 | 0.00 | 0.00 | 49 | 1007.1 |
| 20260503175427 | 45 | 333 | 6.0 | 9.0 | 0.00 | 0.00 | 0.00 | 50 | 1007.1 |
| 20260503174922 | 45 | 180 | 12.0 | 15.0 | 0.00 | 0.00 | 0.00 | 50 | 1006.8 |
| 20260503174420 | 45 | 311 | 9.0 | 16.0 | 0.00 | 0.00 | 0.00 | 49 | 1007.1 |
| 20260503173920 | 45 | 24 | 4.0 | 6.0 | 0.00 | 0.00 | 0.00 | 49 | 1006.8 |
| 20260503173417 | 46 | 331 | 6.0 | 8.0 | 0.00 | 0.00 | 0.00 | 46 | 1006.8 |
| 20260503172914 | 46 | 45 | 4.0 | 7.0 | 0.00 | 0.00 | 0.00 | 46 | 1006.8 |
| 20260503172411 | 46 | 253 | 2.0 | 3.0 | 0.00 | 0.00 | 0.00 | 48 | 1006.8 |
| 20260503171907 | 46 | 259 | 4.0 | 6.0 | 0.00 | 0.00 | 0.00 | 48 | 1006.8 |
| 20260503171404 | 47 | 357 | 6.0 | 9.0 | 0.00 | 0.00 | 0.00 | 48 | 1006.4 |
| 20260503170902 | 47 | 31 | 4.0 | 6.0 | 0.00 | 0.00 | 0.00 | 49 | 1006.4 |
| 20260503170358 | 46 | 5 | 6.0 | 9.0 | 0.00 | 0.00 | 0.00 | 47 | 1006.8 |
| 20260503150750 | 42 | 278 | 4.0 | 6.0 | 0.00 | 0.00 | 0.00 | 56 | 1007.4 |
| 20260503150246 | 42 | 164 | 3.0 | 3.0 | 0.00 | 0.00 | 0.00 | 60 | 1007.4 |